User: anonymous   Login
Location: ????????
(38.4362°N, 22.8767°E)
Time: 17:03:52
(UTC+00:00)
Language:

AQUA - Orbit

View from above orbital plane
View from above orbital plane
View from above satellite
View from above satellite

Ground track
Ground track

The orbit data is extracted from the following two-line orbital elements,

1 27424U 02022A   24173.49713753  .00001130  00000-0  24854-3 0  9992
2 27424  98.3307 122.8826 0002249  86.9458  26.5618 14.59396261177343
Epoch (UTC): 21 June 2024 11:55:52
Eccentricity: 0.0002249
inclination: 98.3307°
perigee height: 693 km
apogee height: 697 km
right ascension of ascending node: 122.8826°
argument of perigee: 86.9458°
revolutions per day: 14.59396261
mean anomaly at epoch: 26.5618°
orbit number at epoch: 17734

The dashed part of the orbit path shows where the satellite is in the earth's shadow,  

DLR